Location: Bieujac
(44.5398°N, 0.1549°W)
Time: 23:56:47
(UTC+00:00)

Cosmos 2061 Rocket - Pass Details

Date: 17 November 2019
Orbit: 965 x 1013 km, 82.9° (Epoch: 05 December)

Event Time Altitude Azimuth Distance (km) Brightness Sun altitude
Rises 05:08:39 0° 180° (S) 3,677 7.1 -19.6°
Reaches altitude 10° 05:11:10 10° 179° (S) 2,726 6.4 -19.1°
Maximum altitude 05:17:23 76° 95° (E) 1,008 4.2 -18.0°
Drops below altitude 10° 05:23:35 10° 11° (NNE) 2,719 6.4 -17.0°
Sets 05:26:06 0° 10° (N) 3,667 7.0 -16.5°
